#timestamp,LO_Frequency,Hit,StdDev 
1650556815.6,286046999.4,N
1650556835.5,286046999.1,N
1650556855.3,286046996.5,N
1650556875.1,286046998.4,N
1650556895.9,286046998.1,N
1650556915.7,286047000.4,N
1650556935.6,286047000.3,N
1650556955.4,286047001.2,N
1650556975.2,286046998.2,N
1650556995.1,286047001.2,N
1650556996.0,286047001.2,N
1650557015.8,286047000.1,N
1650557035.7,286047000.9,N
1650557055.5,286046998.2,N
1650557075.3,286047001.2,N
1650557095.2,286046999.0,N
1650557115.9,286047000.7,N
1650557135.7,286047002.1,N
1650557155.6,286047000.2,N
1650557175.4,286047000.4,N
1650557195.3,286047002.1,N
1650557215.1,286047004.3,N
1650557216.0,286047004.3,N
1650557235.8,286047001.4,N
1650557255.7,286047003.8,N
1650557275.5,286047003.1,N
1650557295.3,286047006.0,N
1650557315.2,286047006.0,N
1650557335.0,286047005.7,N
1650557335.9,286047005.7,N
1650557355.8,286047003.1,N
1650557375.6,286047004.4,N
1650557395.4,286047001.7,N
1650557415.3,286047003.9,N
1650557435.1,286047001.8,N
1650557455.9,286047004.3,N
1650557475.7,286047001.3,N
1650557495.5,286047004.4,N
1650557515.4,286047001.5,N
1650557535.2,286047003.6,N
1650557555.0,286047003.2,N
1650557555.9,286047003.2,N
1650557575.8,286047003.4,N
1650557595.6,286047002.9,N
1650557615.5,286047003.9,N
1650557635.3,286047006.0,Y
1650557655.1,286047002.2,P
1650557675.9,286047002.0,P
1650557695.7,286047003.6,P
1650557715.6,286047001.4,N
1650557735.4,286047004.0,Y
1650557755.2,286047000.9,P
1650557775.1,286046999.3,N
1650557776.0,286046999.3,N
1650557795.8,286046999.0,N
1650557815.7,286046999.4,N
1650557835.5,286046998.9,N
1650557855.3,286046999.2,N
1650557875.2,286046999.1,N
1650557895.0,286046998.6,N
1650557895.9,286046998.6,N
1650557915.7,286046998.1,N
1650557935.6,286047000.8,N
1650557955.4,286046998.1,N
1650557975.3,286047000.9,N
1650557995.1,286047000.5,N
1650557996.0,286047000.5,N
1650558015.8,286047000.7,N
1650558035.7,286047001.2,N
1650558055.5,286047000.5,N
1650558075.3,286046998.5,N
1650558095.2,286047001.0,N
1650558115.0,286047000.4,N
1650558115.9,286047000.4,N
1650558135.8,286047002.8,N
1650558155.6,286047000.2,N
1650558175.4,286046998.1,N
1650558195.3,286047000.6,N
1650558215.1,286047000.9,N
1650558235.8,286047001.9,N
1650558255.7,286047002.6,N
1650558275.5,286047000.1,N
1650558295.4,286046999.7,N
1650558315.2,286047002.1,N
1650558335.0,286047000.6,N
1650558335.9,286047000.6,N
1650558355.8,286046998.2,N
1650558375.6,286047000.7,N
1650558395.4,286047002.8,N
1650558415.3,286046998.5,N
1650558435.1,286046999.7,N
1650558455.9,286047000.0,N
1650558475.7,286046999.7,N
1650558495.5,286047002.0,N
1650558515.4,286047001.8,N
1650558535.2,286047001.5,N
1650558555.0,286047001.4,N
1650558556.0,286047001.4,N
1650558575.8,286047001.4,N
1650558595.6,286047001.7,N
1650558615.5,286047003.9,Y
1650558635.3,286047001.9,P
1650558655.1,286047001.5,N
1650558675.9,286047003.2,P
1650558695.7,286047003.2,Y
1650558715.6,286047001.7,P
1650558735.4,286047001.8,P
1650558755.2,286047001.6,P
1650558775.1,286047001.6,Y
1650558776.0,286047001.6,P
1650558795.8,286047000.7,P
1650558815.7,286047001.1,N
1650558835.5,286046999.3,N
1650558855.3,286046999.0,N
1650558875.2,286046997.0,N
1650558895.0,286046996.9,N
1650558895.9,286046996.9,N
1650558915.8,286046998.8,N
1650558935.6,286047000.7,N
1650558955.4,286047001.2,N
1650558975.3,286047000.6,N
1650558995.1,286047000.7,N
1650559015.8,286046999.0,N
1650559035.7,286046998.6,N
1650559055.5,286047000.5,N
1650559075.3,286047000.6,N
1650559095.2,286046998.2,N
1650559115.0,286047001.0,N
1650559115.9,286047001.0,N
1650559135.8,286046999.9,N
1650559155.6,286047001.0,N
1650559175.4,286047000.4,N
1650559195.3,286047000.6,N
1650559215.1,286047001.2,N
1650559235.9,286047000.2,N
1650559255.7,286046999.7,N
1650559275.5,286046999.9,N
1650559295.4,286046999.7,N
1650559315.2,286046999.7,N
1650559335.1,286047000.2,N
1650559336.0,286047000.2,N
1650559355.8,286047002.8,N
1650559375.6,286047000.9,N
1650559395.5,286046998.8,N
1650559415.3,286046998.5,N
1650559435.1,286047000.9,N
1650559455.9,286047001.2,N
1650559475.7,286047000.4,N
1650559495.6,286047001.0,N
1650559515.4,286046999.7,N
1650559535.2,286047000.6,N
1650559555.1,286047000.2,N
1650559556.0,286047000.2,N
1650559575.8,286047002.3,N
1650559595.6,286047002.3,N
1650559615.5,286047002.4,N
1650559635.3,286047003.9,Y
1650559655.2,286047002.3,P
1650559675.0,286047002.8,P
1650559675.9,286047002.8,N
1650559695.8,286047002.3,N
1650559715.6,286047000.2,N
1650559735.4,286047000.9,N
1650559755.3,286047000.5,N
1650559775.1,286046999.8,N
1650559776.0,286046999.8,N
1650559795.8,286047002.8,N
1650559815.7,286046999.9,N
1650559835.5,286047002.4,N
1650559855.4,286047003.1,N
1650559875.2,286047004.2,Y
1650559895.0,286047000.4,P
1650559895.9,286047000.4,N
1650559915.8,286047000.6,N
1650559935.6,286047002.8,Y
1650559955.5,286046998.6,P
1650559975.3,286047001.1,N
1650559995.1,286046998.3,N
1650560015.9,286046999.3,N
1650560035.7,286046997.0,N
1650560055.5,286046999.5,N
1650560075.4,286046997.0,N
1650560095.2,286046998.3,N
1650560115.1,286046999.8,N
1650560116.0,286046999.8,N
1650560135.8,286047000.1,N
1650560155.6,286046998.7,N
1650560175.5,286047001.2,N
1650560225.3,286047000.4,E
1650560235.3,286046998.6,N
1650560255.1,286046999.0,P
1650560275.8,286046999.0,P
1650560295.7,286046998.7,Y
1650560315.5,286046998.2,P
1650560335.4,286046998.7,P
1650560355.2,286046999.9,N
1650560375.0,286047000.0,N
1650560375.9,286047000.0,N
1650560395.8,286046999.8,N
